Weather History for KPVB - November, 2012

Change the Weather History Date:

Monday, November 19, 2012

  Actual Average (KDBQ) Record (KDBQ)
Temperature  
Mean Temperature 45 °F 35 °F  
Max Temperature 51 °F 43 °F 74 °F (1942)
Min Temperature 39 °F 27 °F 4 °F (1914)
Degree Days  
Heating Degree Days 20 30  
Month to date heating degree days 481  
Since 1 July heating degree days 1130  
Cooling Degree Days 0 0  
Month to date cooling degree days 0  
Year to date cooling degree days 643  
Moisture  
Dew Point 38 °F    
Average Humidity 72    
Maximum Humidity 93    
Minimum Humidity 58    
Precipitation  
Precipitation 0.00 in 0.08 in 0.73 in (1983)
Month to date precipitation 1.51  
Year to date precipitation 33.61  
Snow  
Snow 0.00 in 0.10 in - ()
Month to date snowfall 0.9  
Since 1 July snowfall 0.9  
Since 1 September snowfall 0.9  
Snow Depth -    
Sea Level Pressure  
Sea Level Pressure 30.15 in    
Wind  
Wind Speed 7 mph (SSE)    
Max Wind Speed 13 mph    
Max Gust Speed -    
Visibility 9 miles    
Events      
T = Trace of Precipitation, MM = Missing Value Source: NWS Daily Summary

Daily Weather History Graph

Daily Weather History Graph

Search for Another Location

Airport or City:

Trip Planner

Search our weather history database for the weather conditions in past years. The results will help you decide how hot, cold, wet, or windy it might be!

Date:

Astronomy

Nov. 19, 2012 Rise Set
Actual Time 6:58 AM CST 4:35 PM CST
Civil Twilight 6:28 AM CST 5:05 PM CST
Nautical Twilight 5:53 AM CST 5:40 PM CST
Astronomical Twilight 5:20 AM CST 6:13 PM CST
Moon 11:58 AM CST (11/19) 11:06 PM CST (11/19)
Length of Visible Light 10h 37m
Length of Day
9h 36m
Waxing Crescent, 41% of the Moon is Illuminated
Nov 19
Waxing Crescent
Nov 20
First Quarter
Nov 28
Full
Dec 6
Last Quarter
Dec 13
New

Hourly Weather History & Observations

Time (CST) Temp. Windchill Dew Point Humidity Pressure Visibility Wind Dir Wind Speed Gust Speed Precip Events Conditions
12:15 AM 44.6 °F 41.4 °F 33.8 °F 66% 30.26 in 10.0 mi ESE 5.8 mph - N/A   Clear
12:35 AM 44.6 °F 41.4 °F 33.8 °F 66% 30.25 in 10.0 mi SE 5.8 mph - N/A   Clear
12:55 AM 44.6 °F 40.2 °F 33.8 °F 66% 30.25 in 10.0 mi SE 8.1 mph - N/A   Clear
1:15 AM 44.6 °F 40.2 °F 33.8 °F 66% 30.24 in 10.0 mi SE 8.1 mph - N/A   Clear
1:35 AM 42.8 °F 38.6 °F 32.0 °F 66% 30.24 in 10.0 mi SE 6.9 mph - N/A   Clear
1:55 AM 42.8 °F 38.0 °F 32.0 °F 66% 30.23 in 10.0 mi SE 8.1 mph - N/A   Clear
2:35 AM 42.8 °F 39.3 °F 32.0 °F 66% 30.22 in 10.0 mi SE 5.8 mph - N/A   Scattered Clouds
2:55 AM 42.8 °F 40.1 °F 32.0 °F 66% 30.22 in 10.0 mi SE 4.6 mph - N/A   Clear
3:15 AM 42.8 °F 39.3 °F 32.0 °F 66% 30.22 in 10.0 mi SE 5.8 mph - N/A   Clear
3:55 AM 42.8 °F 39.3 °F 32.0 °F 66% 30.21 in 10.0 mi ESE 5.8 mph - N/A   Clear
4:15 AM 42.8 °F 38.6 °F 32.0 °F 66% 30.21 in 10.0 mi SE 6.9 mph - N/A   Clear
4:35 AM 42.8 °F 38.6 °F 32.0 °F 66% 30.20 in 10.0 mi SE 6.9 mph - N/A   Clear
4:55 AM 42.8 °F 38.0 °F 33.8 °F 70% 30.20 in 10.0 mi SE 8.1 mph - N/A   Clear
5:15 AM 41.0 °F 36.4 °F 32.0 °F 70% 30.20 in 10.0 mi ESE 6.9 mph - N/A   Clear
5:35 AM 41.0 °F 35.8 °F 32.0 °F 70% 30.19 in 10.0 mi ESE 8.1 mph - N/A   Clear
5:55 AM 41.0 °F 38.0 °F 33.8 °F 76% 30.20 in 10.0 mi ESE 4.6 mph - N/A   Clear
6:15 AM 39.2 °F 35.0 °F 33.8 °F 81% 30.20 in 10.0 mi East 5.8 mph - N/A   Clear
6:35 AM 41.0 °F 38.0 °F 33.8 °F 76% 30.20 in 10.0 mi ESE 4.6 mph - N/A   Mostly Cloudy
6:55 AM 41.0 °F 37.1 °F 33.8 °F 76% 30.20 in 10.0 mi ESE 5.8 mph - N/A   Overcast
7:35 AM 41.0 °F 35.8 °F 33.8 °F 76% 30.19 in 10.0 mi ESE 8.1 mph - N/A   Overcast
7:55 AM 41.0 °F 35.8 °F 33.8 °F 76% 30.19 in 10.0 mi ESE 8.1 mph - N/A   Overcast
8:15 AM 42.8 °F 38.6 °F 33.8 °F 70% 30.19 in 10.0 mi ESE 6.9 mph - N/A   Overcast
8:35 AM 42.8 °F 38.6 °F 35.6 °F 76% 30.20 in 10.0 mi SSE 6.9 mph - N/A   Overcast
8:55 AM 42.8 °F 37.5 °F 33.8 °F 70% 30.19 in 10.0 mi ESE 9.2 mph - N/A   Overcast
9:15 AM 44.6 °F 42.2 °F 33.8 °F 66% 30.19 in 10.0 mi SE 4.6 mph - N/A   Overcast
9:35 AM 44.6 °F 40.7 °F 35.6 °F 71% 30.20 in 10.0 mi SE 6.9 mph - N/A   Overcast
9:55 AM 44.6 °F 42.2 °F 35.6 °F 71% 30.20 in 10.0 mi SSE 4.6 mph - N/A   Overcast
10:15 AM 46.4 °F 41.9 °F 33.8 °F 62% 30.19 in 10.0 mi SSE 9.2 mph - N/A   Overcast
10:35 AM 48.2 °F - 35.6 °F 62% 30.19 in 10.0 mi SSE 8.1 mph - N/A   Overcast
10:55 AM 48.2 °F - 35.6 °F 62% 30.18 in 10.0 mi SSE 10.4 mph - N/A   Mostly Cloudy
11:15 AM 50.0 °F - 35.6 °F 58% 30.17 in 10.0 mi SSE 9.2 mph - N/A   Mostly Cloudy
11:35 AM 50.0 °F - 35.6 °F 58% 30.16 in 10.0 mi SSE 12.7 mph - N/A   Overcast
11:55 AM 51.8 °F - 37.4 °F 58% 30.14 in 10.0 mi SSE 11.5 mph - N/A   Overcast
12:15 PM 51.8 °F - 37.4 °F 58% 30.13 in 10.0 mi SSE 11.5 mph - N/A   Overcast
12:35 PM 51.8 °F - 37.4 °F 58% 30.12 in 10.0 mi South 11.5 mph - N/A   Mostly Cloudy
12:55 PM 51.8 °F - 37.4 °F 58% 30.11 in 10.0 mi SSE 10.4 mph - N/A   Overcast
1:15 PM 51.8 °F - 37.4 °F 58% 30.10 in 10.0 mi SSE 12.7 mph - N/A   Mostly Cloudy
1:35 PM 51.8 °F - 37.4 °F 58% 30.09 in 10.0 mi SE 11.5 mph - N/A   Overcast
1:55 PM 51.8 °F - 37.4 °F 58% 30.08 in 10.0 mi SE 8.1 mph - N/A   Overcast
2:15 PM 51.8 °F - 39.2 °F 62% 30.09 in 10.0 mi SSE 10.4 mph - N/A   Overcast
2:35 PM 50.0 °F - 39.2 °F 66% 30.09 in 10.0 mi SSE 10.4 mph - N/A   Overcast
2:55 PM 50.0 °F - 39.2 °F 66% 30.09 in 10.0 mi South 8.1 mph - N/A   Overcast
3:15 PM 50.0 °F - 39.2 °F 66% 30.09 in 10.0 mi SSE 6.9 mph - N/A   Overcast
3:35 PM 50.0 °F - 41.0 °F 71% 30.09 in 10.0 mi SE 5.8 mph - N/A   Overcast
3:55 PM 50.0 °F - 41.0 °F 71% 30.09 in 10.0 mi SE 3.5 mph - N/A   Overcast
4:15 PM 50.0 °F - 41.0 °F 71% 30.09 in 10.0 mi SE 5.8 mph - N/A   Overcast
4:35 PM 50.0 °F - 41.0 °F 71% 30.09 in 10.0 mi South 8.1 mph - N/A   Overcast
4:55 PM 50.0 °F - 42.8 °F 76% 30.09 in 10.0 mi South 8.1 mph - N/A   Overcast
5:15 PM 50.0 °F - 42.8 °F 76% 30.09 in 10.0 mi South 10.4 mph - N/A   Overcast
5:35 PM 50.0 °F - 42.8 °F 76% 30.09 in 10.0 mi South 9.2 mph - N/A   Overcast
5:55 PM 50.0 °F - 42.8 °F 76% 30.10 in 10.0 mi South 8.1 mph - N/A   Overcast
6:15 PM 48.2 °F - 42.8 °F 82% 30.10 in 10.0 mi South 6.9 mph - N/A   Overcast
6:35 PM 48.2 °F - 42.8 °F 82% 30.10 in 10.0 mi South 5.8 mph - N/A   Overcast
6:55 PM 48.2 °F - 42.8 °F 82% 30.10 in 10.0 mi South 6.9 mph - N/A   Overcast
7:15 PM 48.2 °F - 44.6 °F 87% 30.10 in 10.0 mi South 8.1 mph - N/A   Overcast
7:55 PM 48.2 °F - 44.6 °F 87% 30.09 in 7.0 mi South 8.1 mph - N/A   Overcast
8:15 PM 46.4 °F 41.9 °F 44.6 °F 93% 30.09 in 5.0 mi South 9.2 mph - N/A   Overcast
8:35 PM 46.4 °F 43.5 °F 44.6 °F 93% 30.09 in 5.0 mi South 5.8 mph - N/A   Overcast
9:15 PM 46.4 °F 44.3 °F 44.6 °F 93% 30.09 in 7.0 mi South 4.6 mph - N/A   Overcast
9:35 PM 46.4 °F 44.3 °F 42.8 °F 87% 30.09 in 7.0 mi SSW 4.6 mph - N/A   Overcast
9:55 PM 46.4 °F 44.3 °F 42.8 °F 87% 30.09 in 7.0 mi South 4.6 mph - N/A   Overcast
10:15 PM 46.4 °F 44.3 °F 42.8 °F 87% 30.08 in 7.0 mi South 4.6 mph - N/A   Overcast
10:35 PM 46.4 °F 44.3 °F 42.8 °F 87% 30.07 in 7.0 mi SSE 4.6 mph - N/A   Overcast
10:55 PM 46.4 °F 45.2 °F 42.8 °F 87% 30.08 in 7.0 mi SSE 3.5 mph - N/A   Overcast
11:15 PM 46.4 °F 45.2 °F 42.8 °F 87% 30.08 in 7.0 mi South 3.5 mph - N/A   Overcast
11:35 PM 46.4 °F 44.3 °F 42.8 °F 87% 30.08 in 7.0 mi South 4.6 mph - N/A   Overcast
11:55 PM 46.4 °F - 42.8 °F 87% 30.08 in 7.0 mi Calm Calm - N/A   Overcast